Minneapolis, MN

12:11 AM CDT on March 25, 2017 (GMT -0500)
Minneapolis-Saint Paul International

Weather History for KMSP - October, 2013

Change the Weather History Date:

Monday, October 7, 2013

  Actual Average Record
Temperature  
Mean Temperature 55 °F 53 °F  
Max Temperature 67 °F 62 °F 85 °F (2003)
Min Temperature 43 °F 43 °F 25 °F (1976)
Degree Days  
Heating Degree Days 10 13  
Month to date heating degree days 54 81  
Since 1 July heating degree days 120 254  
Cooling Degree Days 0 0  
Month to date cooling degree days 0 3  
Year to date cooling degree days 981 750  
Growing Degree Days 4 (Base 50)    
Moisture  
Dew Point 42 °F    
Average Humidity 69    
Maximum Humidity 100    
Minimum Humidity 37    
Precipitation  
Precipitation 0.00 in 0.09 in 0.98 in (1904)
Month to date precipitation 1.28 0.67  
Year to date precipitation 29.07 25.92  
Snow  
Snow 0.00 in 0.00 in T in (1915)
Month to date snowfall 0.0 0.0  
Since 1 July snowfall T T  
Since 1 September snowfall 0.0 T  
Snow Depth 0.00 in    
Sea Level Pressure  
Sea Level Pressure 29.93 in    
Wind  
Wind Speed 4 mph (WSW)    
Max Wind Speed 13 mph    
Max Gust Speed 17 mph    
Visibility 10 miles    
Events      
T = Trace of Precipitation, MM = Missing Value Source: NWS Daily Summary

Daily Weather History Graph

Daily Weather History Graph

Search for Another Location

Airport or City:

Trip Planner

Search our weather history database for the weather conditions in past years. The results will help you decide how hot, cold, wet, or windy it might be!

Date:

Astronomy

Oct. 07, 2013 Rise Set
Actual Time 7:18 AM CDT 6:41 PM CDT
Civil Twilight 6:49 AM CDT 7:11 PM CDT
Nautical Twilight 6:15 AM CDT 7:44 PM CDT
Astronomical Twilight 5:41 AM CDT 8:18 PM CDT
Moon 10:17 AM CDT (10/7) 8:18 PM CDT (10/7)
Length of Visible Light 12h 21m
Length of Day
11h 23m
Waxing Crescent, 9% of the Moon is Illuminated
Oct 7
Waxing Crescent
Oct 11
First Quarter
Oct 18
Full
Oct 26
Last Quarter
Nov 3
New

Hourly Weather History & Observations

Time (CDT) Temp. Windchill Dew Point Humidity Pressure Visibility Wind Dir Wind Speed Gust Speed Precip Events Conditions
12:53 AM 46.0 °F 44.8 °F 44.1 °F 93% 29.86 in 10.0 mi WSW 3.5 mph - N/A   Partly Cloudy
1:53 AM 45.0 °F 43.5 °F 44.1 °F 97% 29.86 in 10.0 mi SSW 3.5 mph - N/A   Partly Cloudy
2:53 AM 44.1 °F - 43.0 °F 96% 29.85 in 10.0 mi Calm Calm - N/A   Scattered Clouds
3:53 AM 45.0 °F 43.5 °F 43.0 °F 93% 29.85 in 10.0 mi South 3.5 mph - N/A   Mostly Cloudy
4:53 AM 45.0 °F 43.5 °F 43.0 °F 93% 29.86 in 10.0 mi SW 3.5 mph - N/A   Scattered Clouds
5:53 AM 44.1 °F - 42.1 °F 93% 29.87 in 10.0 mi Calm Calm - N/A   Partly Cloudy
6:53 AM 44.1 °F - 42.1 °F 93% 29.88 in 10.0 mi Calm Calm - N/A   Partly Cloudy
7:53 AM 43.0 °F 41.3 °F 42.1 °F 97% 29.91 in 10.0 mi SW 3.5 mph - N/A   Partly Cloudy
8:53 AM 48.0 °F - 45.0 °F 89% 29.93 in 10.0 mi West 3.5 mph - N/A   Partly Cloudy
9:53 AM 53.1 °F - 46.0 °F 77% 29.95 in 10.0 mi NNW 4.6 mph - N/A   Partly Cloudy
10:53 AM 57.0 °F - 46.0 °F 67% 29.97 in 10.0 mi West 3.5 mph - N/A   Partly Cloudy
11:53 AM 61.0 °F - 44.1 °F 54% 29.97 in 10.0 mi NW 5.8 mph - N/A   Partly Cloudy
12:53 PM 64.0 °F - 41.0 °F 43% 29.97 in 10.0 mi NNW 9.2 mph - N/A   Partly Cloudy
1:53 PM 64.9 °F - 39.9 °F 40% 29.96 in 10.0 mi NW 9.2 mph - N/A   Partly Cloudy
2:53 PM 66.0 °F - 41.0 °F 40% 29.97 in 10.0 mi West 6.9 mph - N/A   Partly Cloudy
3:53 PM 66.0 °F - 39.0 °F 37% 29.96 in 10.0 mi NW 8.1 mph - N/A   Scattered Clouds
4:53 PM 66.0 °F - 39.0 °F 37% 29.97 in 10.0 mi WSW 3.5 mph - N/A   Partly Cloudy
5:53 PM 64.9 °F - 39.9 °F 40% 29.97 in 10.0 mi WNW 5.8 mph - N/A   Partly Cloudy
6:53 PM 62.1 °F - 39.0 °F 43% 29.97 in 10.0 mi Calm Calm - N/A   Partly Cloudy
7:53 PM 57.9 °F - 42.1 °F 56% 29.99 in 10.0 mi SSE 4.6 mph - N/A   Clear
8:53 PM 57.0 °F - 43.0 °F 59% 29.99 in 10.0 mi Calm Calm - N/A   Clear
9:53 PM 54.0 °F - 43.0 °F 66% 29.99 in 10.0 mi SE 3.5 mph - N/A   Clear
10:53 PM 52.0 °F - 43.0 °F 71% 29.99 in 10.0 mi SE 4.6 mph - N/A   Clear
11:53 PM 53.1 °F - 42.1 °F 66% 29.99 in 10.0 mi ESE 3.5 mph - N/A   Clear